HIMAWARI-8

Last updated on Tue Sep 22 2026 00:02:53 GMT+0000 (Coordinated Universal Time)

1 40267U 14060A 26264.50932284 .00000000 00000+0 00000+0 0 9991 2 40267 0.0148 136.6469 0000977 50.7683 136.9928 1.00270622 43725
UTC large
Height (km)
Speed (km/s)
/
Latitude / Longitude
Inclination (degrees)
Orbital Period (minutes)
Azimuth
Elevation
Range (km)
Doppler Factor

Next 0 passes for location: London (51.5072 / 0.1276)

No passes found over London.
HIMAWARI-8